Find Anik D2

NORAD ID: 15383 Int'l Des: 1984-113 Owner: TCAN Country: CA operational
HEOCIRCULAR

Current View

Loading 3D Globe...

About Anik D2

Description loading...

Upcoming Passes

Passes for default location (London). Set your location on the main map for personalized predictions.

Altitude History

Loading altitude history...

Two-Line Element Set

1 15383U 84113B 26146.16122521 -.00000027 00000-0 00000-0 0 9996
2 15383 13.6034 341.8255 0026229 28.2608 327.7438 0.98906588114625
Epoch: May 26, 2026 • Age: 18 hours

Current Status

Altitude 36240.8 km
Velocity 3.06 km/s
Sub-Earth Point -13.52°S, 31.93°E
Launch Date Nov 8, 1984
Age 41.5 years
Type other

Technical Details

Classification Payload
Mass 627.00 kg
Dry Mass 531.00 kg
Total Mass 1237.00 kg
Length 6.60 m
Diameter 2.20 m
Span 6.60 m
Shape Cyl
Manufacturer HSES/SPARM
Bus Type HS-383
Phase Status Renamed
Owner/State TCAN/CA

Most Searched